TimeEST,TemperatureF,Dew PointF,Humidity,Sea Level PressureIn,VisibilityMPH,Wind Direction,Wind SpeedMPH,Gust SpeedMPH,PrecipitationIn,Events,Conditions,WindDirDegrees,DateUTC
12:53 AM,39.0,37.9,96,30.04,6.0,East,9.2,-,0.02,,Overcast,80,2013-02-23 05:53:00
1:53 AM,39.9,37.9,93,30.06,3.0,ENE,4.6,-,0.05,Rain,Rain,60,2013-02-23 06:53:00
2:53 AM,39.0,37.9,96,29.99,6.0,ENE,6.9,-,0.09,Rain,Light Rain,60,2013-02-23 07:53:00
3:29 AM,39.2,37.4,93,29.97,5.0,East,8.1,-,0.07,Rain,Rain,80,2013-02-23 08:29:00
3:47 AM,39.2,37.4,93,29.95,6.0,ENE,9.2,-,0.11,Rain,Light Rain,60,2013-02-23 08:47:00
3:53 AM,39.9,37.9,93,29.97,7.0,NE,9.2,-,0.12,Rain,Light Rain,40,2013-02-23 08:53:00
4:20 AM,39.2,39.2,100,29.96,2.5,ENE,5.8,-,0.09,Rain,Rain,70,2013-02-23 09:20:00
4:26 AM,39.2,39.2,100,29.93,3.0,East,8.1,-,0.12,Rain,Rain,100,2013-02-23 09:26:00
4:53 AM,39.9,39.0,97,29.94,3.0,East,9.2,-,0.21,Rain,Heavy Rain,100,2013-02-23 09:53:00
5:53 AM,39.9,37.9,93,29.94,10.0,East,6.9,-,0.02,,Overcast,80,2013-02-23 10:53:00
6:53 AM,39.9,37.9,93,29.96,8.0,ENE,5.8,-,0.01,,Overcast,70,2013-02-23 11:53:00
7:33 AM,39.2,37.4,93,29.96,2.5,ESE,4.6,-,0.02,Rain,Light Rain,120,2013-02-23 12:33:00
7:42 AM,39.2,39.2,100,29.97,3.0,East,4.6,-,0.02,Rain,Light Rain,90,2013-02-23 12:42:00
7:53 AM,39.9,39.0,97,29.98,2.5,Calm,Calm,-,0.02,Rain,Light Rain,0,2013-02-23 12:53:00
7:58 AM,39.2,39.2,100,29.97,1.8,Calm,Calm,-,0.01,Rain,Light Rain,0,2013-02-23 12:58:00
8:46 AM,39.2,39.2,100,29.96,2.0,NNE,6.9,-,0.02,,Overcast,30,2013-02-23 13:46:00
8:53 AM,39.9,39.0,97,29.97,2.0,NNE,6.9,-,0.02,,Overcast,30,2013-02-23 13:53:00
9:01 AM,39.2,39.2,100,29.96,2.5,NNE,4.6,-,N/A,,Overcast,30,2013-02-23 14:01:00
9:09 AM,39.2,39.2,100,29.96,3.0,NNE,4.6,-,N/A,,Overcast,30,2013-02-23 14:09:00
9:46 AM,41.0,39.2,93,29.95,2.5,ENE,4.6,-,N/A,,Overcast,60,2013-02-23 14:46:00
9:53 AM,41.0,39.9,96,29.96,2.5,ENE,4.6,-,N/A,,Overcast,60,2013-02-23 14:53:00
10:11 AM,41.0,39.2,93,29.95,3.0,ENE,4.6,-,N/A,,Overcast,60,2013-02-23 15:11:00
10:53 AM,43.0,41.0,93,29.97,10.0,East,5.8,-,N/A,,Overcast,90,2013-02-23 15:53:00
11:53 AM,43.0,41.0,93,29.95,9.0,East,8.1,-,N/A,,Overcast,90,2013-02-23 16:53:00
12:53 PM,43.0,42.1,97,29.95,8.0,East,3.5,-,N/A,,Overcast,90,2013-02-23 17:53:00
1:53 PM,44.1,42.1,93,29.93,2.5,Calm,Calm,-,N/A,,Overcast,0,2013-02-23 18:53:00
2:04 PM,44.6,42.8,93,29.92,2.0,Calm,Calm,-,N/A,,Overcast,0,2013-02-23 19:04:00
2:20 PM,44.6,42.8,93,29.92,3.0,Calm,Calm,-,N/A,,Overcast,0,2013-02-23 19:20:00
2:53 PM,46.0,43.0,89,29.91,4.0,Calm,Calm,-,N/A,,Overcast,0,2013-02-23 19:53:00
3:53 PM,46.9,44.1,90,29.91,8.0,Calm,Calm,-,N/A,,Overcast,0,2013-02-23 20:53:00
4:36 PM,46.4,44.6,93,29.89,10.0,Calm,Calm,-,N/A,,Overcast,0,2013-02-23 21:36:00
4:53 PM,46.9,44.1,90,29.88,10.0,Calm,Calm,-,N/A,,Overcast,0,2013-02-23 21:53:00
5:30 PM,46.4,44.6,93,29.86,10.0,Calm,Calm,-,N/A,,Mostly Cloudy,0,2013-02-23 22:30:00
5:44 PM,46.4,44.6,93,29.86,10.0,Calm,Calm,-,N/A,,Overcast,0,2013-02-23 22:44:00
5:51 PM,46.4,44.6,93,29.86,10.0,Calm,Calm,-,N/A,,Overcast,0,2013-02-23 22:51:00
5:53 PM,46.9,44.1,90,29.86,10.0,Calm,Calm,-,N/A,,Overcast,0,2013-02-23 22:53:00
6:53 PM,46.0,44.1,93,29.88,10.0,Calm,Calm,-,N/A,,Mostly Cloudy,0,2013-02-23 23:53:00
7:05 PM,46.4,44.6,93,29.88,10.0,South,3.5,-,N/A,,Scattered Clouds,180,2013-02-24 00:05:00
7:53 PM,46.0,44.1,93,29.88,8.0,South,3.5,-,N/A,,Mostly Cloudy,180,2013-02-24 00:53:00
8:53 PM,46.0,44.1,93,29.89,6.0,SW,3.5,-,N/A,,Overcast,220,2013-02-24 01:53:00
9:32 PM,46.4,44.6,93,29.90,6.0,West,6.9,-,N/A,,Overcast,260,2013-02-24 02:32:00
10:53 PM,46.9,45.0,93,29.91,9.0,WNW,9.2,-,N/A,,Mostly Cloudy,290,2013-02-24 03:53:00
11:31 PM,46.4,44.6,93,29.91,10.0,WNW,8.1,-,N/A,,Mostly Cloudy,300,2013-02-24 04:31:00
11:53 PM,46.9,45.0,93,29.91,9.0,WNW,6.9,-,N/A,,Mostly Cloudy,300,2013-02-24 04:53:00